Miles City, MT

5:48 PM MDT on April 27, 2017 (GMT -0600)
Wiley

Weather History for KMLS - April, 2014

Change the Weather History Date:

Sunday, April 20, 2014

  Actual Average Record
Temperature  
Mean Temperature 53 °F 48 °F  
Max Temperature 68 °F 61 °F 90 °F (1980)
Min Temperature 38 °F 35 °F 19 °F (1966)
Degree Days  
Heating Degree Days 12 17  
Month to date heating degree days 456 414  
Since 1 July heating degree days 7550 7089  
Cooling Degree Days 0 0  
Month to date cooling degree days 0 0  
Year to date cooling degree days 0 0  
Growing Degree Days 4 (Base 50)    
Moisture  
Dew Point 24 °F    
Average Humidity 41    
Maximum Humidity 70    
Minimum Humidity 11    
Precipitation  
Precipitation 0.00 in 0.05 in 0.75 in (1973)
Month to date precipitation 0.17 0.80  
Year to date precipitation 1.73 1.95  
Sea Level Pressure  
Sea Level Pressure 29.98 in    
Wind  
Wind Speed 15 mph (WNW)    
Max Wind Speed 30 mph    
Max Gust Speed 38 mph    
Visibility 10 miles    
Events      
T = Trace of Precipitation, MM = Missing Value Source: NWS Daily Summary

Daily Weather History Graph

Daily Weather History Graph

Search for Another Location

Airport or City:

Trip Planner

Search our weather history database for the weather conditions in past years. The results will help you decide how hot, cold, wet, or windy it might be!

Date:

Astronomy

Apr. 20, 2014 Rise Set
Actual Time 6:07 AM MDT 7:58 PM MDT
Civil Twilight 5:35 AM MDT 8:30 PM MDT
Nautical Twilight 4:56 AM MDT 9:09 PM MDT
Astronomical Twilight 4:13 AM MDT 9:53 PM MDT
Moon 12:47 AM MDT (4/20) 10:24 AM MDT (4/20)
Length of Visible Light 14h 54m
Length of Day
13h 50m
Waning Gibbous, 68% of the Moon is Illuminated
Apr 20
Waning Gibbous
Apr 22
Last Quarter
Apr 29
New
May 6
First Quarter
May 14
Full

Hourly Weather History & Observations

Time (MDT) Temp. Windchill Dew Point Humidity Pressure Visibility Wind Dir Wind Speed Gust Speed Precip Events Conditions
12:53 AM 45.0 °F 40.1 °F 25.0 °F 46% 29.88 in 10.0 mi SSE 9.2 mph - N/A   Clear
1:53 AM 48.0 °F - 28.0 °F 46% 29.86 in 10.0 mi SSE 12.7 mph - N/A   Clear
2:53 AM 48.0 °F - 30.9 °F 52% 29.84 in 10.0 mi SSE 11.5 mph - N/A   Clear
3:53 AM 44.1 °F 38.6 °F 32.0 °F 63% 29.84 in 10.0 mi SSE 10.4 mph - N/A   Clear
4:53 AM 42.1 °F 36.1 °F 32.0 °F 67% 29.84 in 10.0 mi SSE 10.4 mph - N/A   Clear
5:53 AM 43.0 °F 36.0 °F 33.1 °F 68% 29.83 in 10.0 mi SSE 13.8 mph - N/A   Clear
6:53 AM 43.0 °F 38.8 °F 33.1 °F 68% 29.85 in 10.0 mi SSE 6.9 mph - N/A   Clear
7:53 AM 43.0 °F 37.7 °F 34.0 °F 71% 29.92 in 10.0 mi West 9.2 mph - N/A   Clear
8:53 AM 52.0 °F - 28.9 °F 41% 29.95 in 10.0 mi NW 18.4 mph - N/A   Clear
9:53 AM 55.9 °F - 28.0 °F 34% 29.98 in 10.0 mi NW 17.3 mph 25.3 mph N/A   Clear
10:53 AM 57.9 °F - 27.0 °F 31% 30.00 in 10.0 mi NW 20.7 mph 26.5 mph N/A   Clear
11:53 AM 64.0 °F - 26.1 °F 24% 29.99 in 10.0 mi NW 25.3 mph 32.2 mph N/A   Partly Cloudy
12:53 PM 64.9 °F - 21.0 °F 19% 30.00 in 10.0 mi NW 24.2 mph 32.2 mph N/A   Clear
1:53 PM 66.0 °F - 19.9 °F 17% 30.00 in 10.0 mi WNW 24.2 mph 35.7 mph N/A   Clear
2:53 PM 64.9 °F - 18.0 °F 16% 30.01 in 10.0 mi NW 17.3 mph 32.2 mph N/A   Clear
3:53 PM 66.9 °F - 17.1 °F 15% 30.02 in 10.0 mi NW 24.2 mph 33.4 mph N/A   Clear
4:53 PM 66.9 °F - 10.0 °F 11% 30.03 in 10.0 mi WNW 26.5 mph 32.2 mph N/A   Clear
5:53 PM 64.9 °F - 12.0 °F 13% 30.05 in 10.0 mi NW 23.0 mph 32.2 mph N/A   Clear
6:53 PM 63.0 °F - 14.0 °F 15% 30.06 in 10.0 mi NW 19.6 mph 27.6 mph N/A   Clear
7:53 PM 57.0 °F - 19.0 °F 23% 30.09 in 10.0 mi NW 11.5 mph - N/A   Clear
8:53 PM 51.1 °F - 21.0 °F 31% 30.11 in 10.0 mi WNW 8.1 mph - N/A   Clear
9:53 PM 46.9 °F - 23.0 °F 39% 30.14 in 10.0 mi WNW 6.9 mph - N/A   Clear
10:53 PM 45.0 °F 40.1 °F 23.0 °F 42% 30.15 in 10.0 mi WNW 9.2 mph - N/A   Clear
11:53 PM 41.0 °F 35.2 °F 23.0 °F 49% 30.15 in 10.0 mi WNW 9.2 mph - N/A   Clear